Hourly Data Report for June 23, 2003

SHERBROOKE A
QUEBEC

45°26'00.000" N
71°41'00.000" W
241.40 m
7028124
71610
YSC

Download Data

Hourly Data (June 2003)
Hourly Data Report for June 23, 2003
TIME
LST
Temp Definition
°C
Dew Point Definition
°C
Rel Hum Definition
%
Precip. Amount Definition
mm

Wind Dir Definition
10's deg

Wind Spd Definition
km/h
Visibility Definition
km
Stn Press Definition
kPa
Hmdx Definition


Wind Chill Definition


Weather Definition


00:00 13.7 13.3 97     0 0.2 97.90      
01:00 13.3 13.0 98   8 4 0.5 97.88      
02:00 11.4 11.3 99     0 0.5 97.88      
03:00 10.6 10.3 98     0 3.7 97.84      
04:00 11.3 11.1 99   12 6 3.5 97.86      
05:00 12.7 12.6 99     0 5.6 97.90      
06:00 14.1 13.6 97   12 6 8.0 97.97      
07:00 16.7 15.8 94     0 24.1 98.04     Mostly Cloudy
08:00 17.4 15.6 89     0 24.1 98.06     Mostly Cloudy
09:00 19.5 16.7 84     0 24.1 98.06     Mostly Cloudy
10:00 23.8 18.2 71   27 4 24.1 98.05 30   Mostly Cloudy
11:00 25.4 18.7 66   31 4 24.1 98.04 32   Mostly Cloudy
12:00 26.8 19.4 64     0 24.1 98.01 34   Mostly Cloudy
13:00 28.1 19.2 58   27 4 24.1 98.03 35   Mostly Cloudy
14:00 28.8 18.5 54   25 9 19.3 98.01 35   Mostly Cloudy
15:00 29.2 18.2 52   28 7 19.3 98.01 35   Mostly Cloudy
16:00 29.2 18.8 54   28 9 19.3 98.00 36   Mostly Cloudy
17:00 28.3 18.3 55   32 6 15.0 98.01 35    
18:00 28.8 21.3 64     0 15.0 98.05 37    
19:00 24.9 20.6 77     0 15.0 98.11 33    
20:00 21.3 19.0 87     0 12.9 98.13 28    
21:00 20.2 18.2 88   11 4 11.3 98.20 26    
22:00 18.3 17.1 93   10 6 9.7 98.26      
23:00 17.3 16.4 94     0 8.0 98.30      

Notes on Data Quality.

Legend

  • E = Estimated
  • M = Missing
  • NA = Not Available*
  • [empty] = Indicates an unobserved value
Date modified: